Vertical_Velocity
-0 2 1 2 1 1 1 1 0 1 1 1 -0 -1 -1 0 -2 -1 -1 -0 -1 1 -1 -2 -1 -2 -1 0 -1 -1 0 -0 -1 0 0 0 1 -0 -1 -1 -1 -1 -0 2 -3 1 3
0 0 3 2 3 1 1 1 1 -0 2 1 0 0 -0 -1 -1 -0 -1 -1 -0 -1 -0 -2 -2 -2 -1 -0 -2 -1 -1 -1 -0 1 -0 -0 -1 1 -2 -1 -3 -0 -0 0 0 1 1
-2 -1 -0 0 1 2 3 2 1 0 -1 1 -0 -1 -1 -1 -0 -0 0 -1 -1 -1 -0 -1 -0 -1 -2 -1 -1 -1 -1 -1 -1 -1 -1 -1 -0 1 0 0 -1 -0 -0 0 1 -0 -1
-1 -1 -2 -1 -1 1 2 2 1 -1 2 1 2 -0 -2 0 -1 0 1 -0 -2 -0 -0 -1 -1 -1 -1 -1 -1 0 0 -1 -2 -1 -1 -1 -0 -1 -0 -0 -0 -1 -2 -1 -1 -2 -0
-1 0 -2 -3 -1 -1 -0 2 2 1 0 2 1 -1 -0 1 -1 -1 1 -1 -0 -2 -0 0 -1 -1 -2 -2 -2 -1 -1 -1 -1 -1 -1 -2 -1 -1 -0 -0 -0 -0 -1 -2 -3 0 -0
-3 -3 1 1 -3 -1 -2 0 1 2 0 -0 3 0 -0 1 -1 -1 1 -1 -0 0 1 -1 -1 0 -1 -1 -1 -1 -1 -0 -1 -1 -2 -2 -1 -1 -3 -3 -4 -2 -2 3 0 -3 -1
2 -3 -3 -1 0 -2 -2 -2 -0 1 0 0 1 2 2 -0 -1 1 0 1 -1 -1 -1 -0 -1 0 -0 -0 -0 -1 -0 1 2 1 -0 -0 -1 -3 -1 -2 0 1 1 -0 1 -1 1
1 -0 -3 -3 -1 1 -1 -3 -2 1 2 -0 -1 1 2 2 2 0 -0 -1 -2 -1 -2 -1 -1 -2 -1 0 1 -0 0 -1 -1 -0 -1 -1 -0 -0 -1 -1 -1 -1 -4 1 -3 0 -0
-3 0 1 -2 -2 -0 0 -0 -4 -2 -0 1 1 0 1 1 1 -0 -1 -1 -1 -1 -0 -2 -1 -0 -1 -1 -0 1 1 2 2 0 -1 -1 -1 -0 0 1 1 2 -0 2 -0 -1 0
-1 -1 -3 2 1 -2 0 -1 0 -3 -2 -0 1 1 1 1 0 -1 0 0 1 1 -1 -1 -1 -2 -1 0 -1 0 0 -1 -0 1 0 0 -0 -1 -0 1 1 1 -0 0 3 5 -1
-0 -1 1 -3 1 4 -1 1 -1 -1 -4 -1 1 1 0 1 1 -0 1 1 1 1 -5 -0 -0 -0 -1 -1 1 -0 1 1 1 -0 -0 -1 1 -0 0 -0 0 -1 0 -1 -1 0 1
0 -1 -0 1 -2 -0 3 0 0 -0 -1 -1 -1 1 2 -1 2 -1 0 4 1 1 -9 -2 -0 -1 -0 -0 -1 -1 -1 1 1 1 -0 -1 -0 -2 -0 -1 -2 -2 -1 1 1 2 1
-3 -6 1 5 1 -3 2 4 3 1 0 -1 -1 -2 -1 2 3 2 1 4 2 -1 -1 0 -0 -1 1 0 -0 -1 -0 -0 -0 -1 -1 0 -1 -2 -1 1 0 2 2 -1 -4 -1 -7
-2 -9 -12 2 5 1 -2 0 4 3 2 -1 -1 -3 -0 2 2 2 2 5 4 2 0 -0 0 1 -1 2 -1 -1 -0 0 -0 1 0 -1 -3 2 0 0 -1 -0 -2 -3 -2 -1 -3
-2 0 -2 -11 -4 7 3 -1 -0 2 2 2 -1 -5 -1 1 3 4 3 -0 -3 -1 -0 1 2 1 0 -0 1 1 1 -1 -0 0 -3 -2 -2 1 0 2 2 -0 -2 -1 1 0 4
3 4 3 -0 -1 -3 6 11 3 0 1 1 1 -2 0 -0 2 4 5 -3 -1 0 -0 -1 2 2 -0 -0 1 -0 -2 0 1 0 1 1 -1 -2 -1 2 2 1 1 0 -1 -2 -1
-2 0 6 0 3 -2 -1 12 9 8 6 -1 2 -1 4 0 2 3 -3 -2 1 2 0 2 0 -0 0 -1 -2 -2 1 -1 0 1 2 3 2 -2 -0 -2 2 1 -1 1 1 -1 -3
3 -5 9 -5 -2 -2 -2 1 4 2 9 10 5 4 1 5 3 -3 -5 -3 -0 -2 -0 1 2 2 2 1 1 2 -4 -4 -3 -2 -3 -2 1 -3 -4 -1 -1 -1 -4 0 1 -3 -1
-0 -1 -2 -1 11 18 10 -9 5 7 7 5 5 11 2 4 -3 -4 -2 -2 -1 1 -2 -3 1 0 3 1 -2 -0 -1 -3 -0 -2 1 -0 2 -0 1 3 1 0 -0 2 1 1 -10
-5 -3 1 -1 2 4 8 -2 3 -3 -6 4 3 6 3 -3 -1 -0 -1 -1 1 -2 -0 1 -2 0 1 -1 0 -0 -3 0 1 -1 1 6 1 -4 -9 2 -1 -5 -2 -0 7 5 -6
2 -1 -4 2 -2 -0 -11 16 -2 0 -4 5 4 -1 -5 -1 -5 3 8 -2 1 -4 3 1 -1 -3 2 0 0 -2 -1 2 -1 -1 -1 1 -4 4 -0 0 5 5 -2 -2 -6 1 5
1 3 -2 -4 -1 0 2 -4 28 17 5 6 -1 3 3 6 8 2 7 -9 -3 4 -0 -0 -6 2 -1 -4 0 -1 2 -1 -1 -2 1 0 -3 -3 -4 0 3 1 -3 -2 3 7 -3
4 0 1 -3 1 0 -3 7 0 1 14 7 -5 5 6 -6 9 0 -3 8 8 11 2 0 4 1 -2 -1 0 -0 -2 -2 2 -0 0 1 2 0 -3 -2 1 -6 -9 1 2 2 2
1 2 6 -3 -1 -7 -2 0 2 2 2 13 2 2 4 -5 2 6 -6 10 3 2 3 3 2 1 0 5 1 1 2 1 -0 1 1 -1 4 3 1 -1 -2 -1 -3 -3 -1 -0 -1
-1 2 5 -0 -3 -1 1 2 4 2 1 -4 18 5 3 -6 0 5 7 2 1 0 1 -2 2 2 -4 0 -1 -0 -4 3 -3 5 3 -0 3 -0 -2 -2 -2 -6 -5 -0 0 -1 -2
-1 -5 2 3 5 6 3 5 -3 3 3 -3 13 8 7 1 -2 3 5 6 7 6 3 2 4 2 2 3 4 -2 -6 -0 0 -1 -1 4 5 -0 3 0 -2 -3 -2 0 2 -12 1
-1 -1 2 2 5 5 4 1 -5 -1 3 -2 3 4 6 -2 -5 2 -2 1 4 7 1 7 2 2 6 2 3 -2 -3 -3 -4 -1 -1 1 2 -6 4 0 -5 -4 0 1 -1 -5 -2
1 -2 -0 6 6 0 -2 -1 -2 -2 8 1 -5 6 5 6 5 4 -4 3 11 4 10 2 12 2 3 4 -3 -2 3 3 -2 1 -0 2 0 -5 9 1 -14 -3 1 -1 0 -0 -1
1 12 -2 3 0 1 1 3 -1 -1 2 1 0 -3 4 15 -2 -2 4 -3 -7 -8 8 -2 -2 -5 -1 -2 4 -3 1 0 -1 -4 0 -6 -6 -2 -6 -1 -3 -0 -0 -0 -1 -2 -1
Height
3162 3164 3165 3166 3167 3168 3168 3168 3167 3168 3167 3166 3165 3165 3165 3164 3164 3163 3163 3162 3161 3160 3159 3159 3158 3158 3158 3159 3159 3158 3158 3158 3159 3159 3160 3160 3161 3161 3161 3161 3162 3163 3165 3166 3167 3168 3169
3162 3162 3164 3164 3166 3167 3167 3167 3167 3166 3166 3165 3165 3164 3164 3163 3162 3162 3162 3162 3161 3160 3159 3158 3157 3157 3157 3158 3157 3157 3157 3157 3157 3158 3158 3159 3159 3159 3160 3160 3161 3163 3163 3164 3164 3165 3166
3162 3162 3161 3163 3164 3165 3165 3165 3165 3165 3164 3164 3164 3163 3163 3162 3161 3161 3161 3160 3160 3159 3157 3157 3156 3156 3156 3157 3156 3155 3155 3155 3156 3156 3156 3156 3157 3159 3159 3159 3159 3160 3162 3162 3163 3163 3165
3163 3162 3161 3161 3161 3162 3162 3163 3163 3163 3162 3162 3162 3162 3161 3161 3160 3159 3159 3159 3158 3157 3156 3155 3155 3154 3154 3153 3154 3154 3154 3154 3154 3155 3155 3155 3156 3157 3158 3158 3158 3159 3160 3160 3160 3161 3162
3160 3161 3161 3159 3159 3160 3160 3160 3160 3160 3160 3160 3160 3160 3159 3159 3159 3158 3157 3157 3156 3156 3155 3154 3153 3152 3152 3151 3152 3152 3153 3153 3153 3152 3152 3153 3154 3155 3156 3156 3157 3157 3157 3157 3158 3158 3159
3156 3158 3159 3158 3157 3157 3158 3158 3158 3158 3158 3158 3157 3157 3157 3157 3157 3156 3155 3155 3155 3154 3153 3152 3150 3152 3150 3149 3149 3149 3150 3150 3150 3150 3151 3151 3152 3152 3153 3154 3154 3155 3155 3155 3155 3155 3155
3153 3154 3156 3156 3156 3155 3155 3155 3155 3155 3155 3156 3155 3155 3155 3155 3154 3154 3154 3154 3156 3154 3151 3149 3148 3145 3144 3145 3145 3145 3145 3146 3146 3147 3148 3148 3150 3150 3150 3151 3152 3152 3153 3153 3152 3152 3152
3150 3150 3151 3153 3154 3154 3152 3153 3152 3152 3152 3152 3152 3152 3151 3152 3151 3151 3152 3151 3151 3151 3148 3145 3143 3141 3141 3141 3142 3142 3144 3145 3144 3145 3145 3148 3147 3148 3148 3149 3150 3150 3150 3150 3149 3148 3148
3146 3146 3146 3147 3149 3150 3151 3150 3150 3149 3149 3149 3148 3148 3148 3148 3149 3149 3149 3149 3148 3146 3145 3142 3141 3139 3139 3140 3139 3140 3141 3142 3143 3143 3144 3145 3147 3146 3147 3148 3148 3147 3146 3146 3147 3145 3144
3142 3142 3143 3142 3143 3145 3146 3147 3147 3146 3145 3145 3145 3145 3145 3145 3147 3146 3146 3146 3145 3143 3141 3140 3139 3139 3139 3138 3139 3139 3140 3142 3141 3142 3142 3143 3144 3144 3144 3144 3144 3144 3144 3144 3144 3143 3142
3136 3137 3137 3139 3139 3139 3141 3142 3143 3143 3142 3142 3141 3141 3142 3142 3143 3143 3145 3143 3143 3143 3141 3138 3136 3136 3137 3139 3139 3139 3139 3139 3140 3140 3142 3141 3141 3141 3141 3142 3141 3142 3141 3141 3140 3138 3136
3130 3131 3132 3134 3136 3135 3134 3136 3138 3139 3139 3138 3138 3138 3138 3139 3139 3140 3140 3141 3142 3144 3135 3132 3133 3133 3135 3135 3136 3137 3137 3137 3137 3137 3137 3138 3138 3138 3138 3137 3137 3138 3138 3136 3134 3133 3131
3123 3124 3126 3128 3130 3131 3130 3131 3132 3133 3135 3135 3135 3135 3135 3135 3136 3136 3137 3138 3140 3136 3133 3130 3129 3130 3132 3133 3134 3134 3134 3133 3134 3134 3134 3134 3133 3133 3133 3133 3133 3134 3134 3134 3134 3132 3125
3114 3116 3120 3120 3123 3125 3126 3126 3126 3127 3129 3131 3131 3131 3131 3131 3132 3132 3134 3136 3134 3128 3127 3127 3127 3128 3129 3130 3130 3129 3129 3129 3130 3130 3130 3130 3129 3128 3128 3129 3129 3129 3132 3133 3130 3128 3122
3105 3107 3110 3113 3115 3117 3118 3120 3121 3122 3123 3124 3126 3126 3127 3127 3127 3128 3130 3130 3127 3125 3125 3125 3125 3125 3125 3125 3127 3126 3125 3125 3125 3125 3128 3126 3126 3124 3125 3125 3128 3126 3127 3128 3127 3124 3120
3096 3098 3100 3103 3106 3108 3110 3112 3114 3116 3117 3117 3118 3120 3122 3123 3123 3123 3123 3122 3122 3122 3122 3123 3123 3123 3121 3122 3123 3123 3122 3121 3120 3121 3121 3122 3122 3121 3121 3122 3122 3122 3124 3124 3125 3124 3118
3089 3088 3090 3093 3096 3098 3100 3102 3103 3106 3108 3110 3112 3112 3115 3117 3118 3117 3115 3116 3117 3118 3120 3120 3119 3119 3118 3118 3119 3119 3119 3118 3117 3118 3118 3119 3119 3118 3118 3117 3117 3118 3118 3119 3121 3119 3115
3082 3082 3082 3085 3086 3089 3091 3093 3094 3096 3099 3101 3101 3103 3107 3108 3110 3108 3108 3110 3112 3113 3114 3114 3114 3113 3113 3114 3114 3115 3114 3115 3114 3115 3115 3116 3113 3112 3112 3111 3111 3111 3111 3113 3114 3112 3109
3075 3076 3076 3077 3079 3080 3082 3086 3086 3087 3088 3091 3091 3094 3096 3098 3097 3099 3101 3103 3105 3106 3107 3107 3108 3108 3109 3109 3111 3108 3108 3109 3109 3111 3110 3110 3107 3107 3104 3105 3104 3103 3104 3105 3104 3104 3099
3065 3068 3069 3070 3070 3071 3072 3076 3078 3079 3079 3081 3083 3083 3085 3086 3088 3091 3093 3095 3097 3098 3099 3100 3101 3102 3102 3103 3104 3102 3103 3104 3104 3105 3105 3105 3102 3100 3097 3096 3096 3096 3098 3099 3097 3094 3088
3056 3060 3061 3061 3062 3063 3065 3068 3071 3074 3075 3075 3074 3074 3074 3074 3078 3082 3085 3085 3088 3090 3091 3092 3092 3094 3096 3097 3097 3096 3097 3098 3099 3100 3099 3099 3095 3094 3092 3093 3089 3087 3088 3089 3086 3083 3083
3047 3050 3054 3054 3054 3057 3058 3056 3060 3066 3068 3068 3069 3068 3068 3069 3071 3073 3073 3074 3080 3081 3083 3083 3085 3087 3088 3090 3092 3091 3091 3091 3092 3093 3093 3092 3089 3087 3083 3087 3083 3078 3080 3078 3076 3073 3070
3038 3041 3044 3047 3048 3049 3051 3052 3051 3054 3059 3059 3060 3062 3063 3063 3065 3063 3064 3068 3071 3074 3075 3076 3079 3079 3080 3082 3084 3084 3084 3084 3084 3085 3085 3087 3085 3083 3076 3078 3077 3069 3065 3064 3064 3063 3063
3030 3032 3035 3039 3041 3042 3045 3045 3045 3047 3048 3053 3055 3055 3057 3057 3059 3060 3061 3062 3063 3066 3068 3070 3072 3072 3074 3075 3077 3077 3077 3076 3075 3076 3077 3077 3079 3080 3076 3075 3071 3056 3056 3057 3058 3058 3058
3023 3026 3028 3031 3034 3036 3038 3037 3038 3041 3041 3044 3047 3050 3051 3051 3054 3054 3055 3056 3058 3059 3060 3062 3064 3066 3066 3068 3069 3071 3070 3070 3066 3066 3066 3068 3071 3073 3072 3067 3058 3053 3051 3052 3051 3052 3051
3016 3019 3021 3025 3029 3031 3030 3030 3032 3034 3035 3036 3041 3044 3045 3045 3046 3048 3048 3050 3051 3052 3053 3053 3056 3057 3059 3060 3062 3061 3062 3062 3060 3057 3058 3060 3062 3066 3066 3064 3057 3046 3047 3048 3047 3043 3043
3009 3013 3016 3019 3022 3023 3024 3024 3025 3027 3029 3031 3033 3036 3039 3037 3039 3043 3043 3044 3044 3044 3044 3046 3049 3050 3051 3050 3052 3054 3054 3055 3054 3052 3051 3054 3054 3055 3057 3056 3048 3044 3043 3044 3046 3045 3039
3001 3004 3008 3011 3013 3015 3018 3021 3021 3021 3022 3024 3027 3029 3033 3032 3033 3035 3036 3038 3037 3038 3037 3039 3042 3039 3042 3043 3044 3046 3044 3045 3046 3046 3045 3049 3049 3049 3052 3052 3045 3039 3040 3044 3040 3035 3034
2996 2998 3001 3004 3006 3009 3012 3014 3015 3016 3019 3018 3020 3022 3026 3028 3026 3028 3028 3030 3032 3033 3034 3035 3035 3035 3036 3036 3036 3038 3038 3035 3038 3039 3039 3043 3042 3043 3045 3039 3037 3035 3035 3035 3033 3032 3030